TimeCST,TemperatureF,Dew PointF,Humidity,Sea Level PressureIn,VisibilityMPH,Wind Direction,Wind SpeedMPH,Gust SpeedMPH,PrecipitationIn,Events,Conditions,WindDirDegrees,DateUTC
12:15 AM,26.6,19.4,74,30.32,10.0,NNE,4.6,-,N/A,,Clear,30,2013-02-21 06:15:00
12:35 AM,26.6,19.4,74,30.32,10.0,NNE,3.5,-,N/A,,Clear,30,2013-02-21 06:35:00
12:55 AM,26.6,19.4,74,30.31,10.0,NE,6.9,-,N/A,,Clear,40,2013-02-21 06:55:00
1:15 AM,26.6,19.4,74,30.32,10.0,ENE,3.5,-,N/A,,Clear,60,2013-02-21 07:15:00
1:35 AM,26.6,19.4,74,30.30,10.0,NE,6.9,-,N/A,,Clear,40,2013-02-21 07:35:00
1:55 AM,24.8,19.4,80,30.30,10.0,NNE,6.9,-,N/A,,Clear,30,2013-02-21 07:55:00
2:15 AM,24.8,19.4,80,30.30,10.0,NNE,4.6,-,N/A,,Clear,30,2013-02-21 08:15:00
2:35 AM,24.8,19.4,80,30.31,10.0,NNE,3.5,-,N/A,,Clear,30,2013-02-21 08:35:00
2:55 AM,24.8,19.4,80,30.30,10.0,NE,3.5,-,N/A,,Clear,40,2013-02-21 08:55:00
3:15 AM,26.6,19.4,74,30.30,10.0,NE,4.6,-,N/A,,Clear,50,2013-02-21 09:15:00
3:35 AM,26.6,19.4,74,30.30,10.0,NE,3.5,-,N/A,,Clear,40,2013-02-21 09:35:00
3:55 AM,24.8,19.4,80,30.29,10.0,ENE,5.8,-,N/A,,Clear,60,2013-02-21 09:55:00
4:15 AM,26.6,19.4,74,30.28,10.0,NE,5.8,-,N/A,,Clear,50,2013-02-21 10:15:00
4:35 AM,26.6,19.4,74,30.28,10.0,East,6.9,-,N/A,,Clear,80,2013-02-21 10:35:00
4:55 AM,26.6,19.4,74,30.27,10.0,East,4.6,-,N/A,,Clear,80,2013-02-21 10:55:00
5:15 AM,26.6,19.4,74,30.28,10.0,ENE,4.6,-,N/A,,Clear,70,2013-02-21 11:15:00
5:35 AM,26.6,19.4,74,30.28,10.0,East,5.8,-,N/A,,Clear,80,2013-02-21 11:35:00
6:55 AM,24.8,17.6,74,30.24,20.0,NE,9.2,-,N/A,,Scattered Clouds,50,2013-02-21 12:55:00
7:55 AM,26.6,19.4,74,30.24,20.0,ENE,11.5,20.7,N/A,,Mostly Cloudy,70,2013-02-21 13:55:00
8:55 AM,28.4,19.4,69,30.23,20.0,NE,9.2,16.1,N/A,,Overcast,40,2013-02-21 14:55:00
11:55 AM,30.2,24.8,80,30.08,7.0,ENE,13.8,21.9,N/A,,Freezing Rain,70,2013-02-21 17:55:00
12:55 PM,30.2,24.8,80,30.01,10.0,ENE,11.5,21.9,N/A,,Overcast,60,2013-02-21 18:55:00
1:55 PM,30.2,26.6,86,30.09,4.0,NNE,9.2,-,N/A,Snow,Light Snow,30,2013-02-21 19:55:00
2:55 PM,30.2,28.4,93,30.08,1.5,NNE,9.2,-,N/A,Snow,Light Snow,30,2013-02-21 20:55:00
3:55 PM,32.0,30.2,93,30.00,2.0,ENE,13.8,-,N/A,Snow,Light Snow,60,2013-02-21 21:55:00
4:45 PM,32.0,30.2,93,29.92,3.0,ENE,11.5,17.3,N/A,Rain,Light Freezing Rain,70,2013-02-21 22:45:00
5:55 PM,33.8,30.2,87,29.92,5.0,ESE,8.1,-,N/A,Rain,Light Rain,110,2013-02-21 23:55:00
7:15 PM,33.8,32.0,93,29.91,5.0,East,3.5,-,0.01,Rain,Light Rain,90,2013-02-22 01:15:00
7:35 PM,33.8,32.0,93,29.90,3.0,East,4.6,-,0.01,,Overcast,100,2013-02-22 01:35:00
7:55 PM,33.8,32.0,93,29.92,2.5,ESE,3.5,-,0.01,,Light Drizzle,110,2013-02-22 01:55:00
8:15 PM,33.8,32.0,93,29.90,3.0,East,4.6,-,N/A,Snow,Light Snow,100,2013-02-22 02:15:00
8:35 PM,33.8,32.0,93,29.87,5.0,ESE,4.6,-,N/A,,Overcast,110,2013-02-22 02:35:00
8:55 PM,33.8,32.0,93,29.85,7.0,ESE,3.5,-,N/A,,Overcast,110,2013-02-22 02:55:00
9:15 PM,33.8,33.8,100,29.86,10.0,ESE,3.5,-,N/A,,Overcast,120,2013-02-22 03:15:00
9:35 PM,33.8,32.0,93,29.86,7.0,Calm,Calm,-,N/A,,Overcast,0,2013-02-22 03:35:00
9:55 PM,33.8,33.8,100,29.86,7.0,Calm,Calm,-,N/A,,Overcast,0,2013-02-22 03:55:00
10:15 PM,33.8,33.8,100,29.87,10.0,Calm,Calm,-,N/A,,Overcast,0,2013-02-22 04:15:00
10:35 PM,33.8,33.8,100,29.87,4.0,Calm,Calm,-,N/A,,Overcast,0,2013-02-22 04:35:00
10:55 PM,33.8,33.8,100,29.87,2.5,Calm,Calm,-,N/A,,Heavy Drizzle,0,2013-02-22 04:55:00
11:15 PM,33.8,33.8,100,29.85,2.5,Calm,Calm,-,N/A,Snow,Light Snow,0,2013-02-22 05:15:00
11:35 PM,33.8,33.8,100,29.83,3.0,Calm,Calm,-,N/A,,Overcast,0,2013-02-22 05:35:00
11:55 PM,33.8,33.8,100,29.84,4.0,Calm,Calm,-,N/A,,Overcast,0,2013-02-22 05:55:00